• Em Portugal
  • Lista de países
  • Para 7 dias
  • Temperatura da água
  • Mapas de satélite
  • Mapa do tempo
  • Widgets de tempo
  • user-avatar
    Iniciar Sessão

    Previsão horária em Berat

    Hoje, 22 Outubro, Segunda-feira

    Tempo Temperatura Precipitação Vento Pressão Humidade
    00:00 +16°C° 0.1 mm 2 m/s 745 mmHg 79%
    01:00 +14°C° 0.1 mm 3 m/s 745 mmHg 81%
    02:00 +14°C° 0.1 mm 3 m/s 745 mmHg 81%
    03:00 +14°C° 0.1 mm 3 m/s 744 mmHg 82%
    04:00 +13°C° 0.1 mm 3 m/s 744 mmHg 82%
    05:00 +14°C° 0 mm 3 m/s 744 mmHg 81%
    06:00 +14°C° 0 mm 3 m/s 745 mmHg 79%
    07:00 +14°C° 0 mm 3 m/s 745 mmHg 77%
    08:00 +17°C° 0 mm 4 m/s 745 mmHg 70%
    09:00 +19°C° 0 mm 4 m/s 745 mmHg 63%
    10:00 +20°C° 0 mm 4 m/s 745 mmHg 55%
    11:00 +20°C° 0.1 mm 4 m/s 744 mmHg 56%
    12:00 +20°C° 0.1 mm 4 m/s 744 mmHg 56%
    13:00 +20°C° 0.1 mm 4 m/s 744 mmHg 56%
    14:00 +19°C° 0.7 mm 4 m/s 743 mmHg 62%
    15:00 +18°C° 0.7 mm 3 m/s 743 mmHg 67%
    16:00 +18°C° 0.7 mm 3 m/s 743 mmHg 72%
    17:00 +17°C° 1.5 mm 3 m/s 743 mmHg 76%
    18:00 +16°C° 1.5 mm 3 m/s 744 mmHg 80%
    19:00 +16°C° 1.5 mm 3 m/s 744 mmHg 84%
    20:00 +16°C° 0.6 mm 3 m/s 744 mmHg 83%
    21:00 +16°C° 0.6 mm 3 m/s 744 mmHg 83%
    22:00 +14°C° 0.6 mm 3 m/s 744 mmHg 82%
    23:00 +14°C° 0.1 mm 3 m/s 744 mmHg 81%

    Amanhã, 23 Outubro, Terça-feira

    Tempo Temperatura Precipitação Vento Pressão Humidade
    00:00 +14°C° 0.1 mm 3 m/s 744 mmHg 80%
    01:00 +14°C° 0.1 mm 3 m/s 744 mmHg 80%
    02:00 +14°C° 0.1 mm 3 m/s 744 mmHg 80%
    03:00 +14°C° 0.1 mm 3 m/s 744 mmHg 80%
    04:00 +14°C° 0.1 mm 3 m/s 743 mmHg 81%
    05:00 +14°C° 0.1 mm 3 m/s 744 mmHg 80%
    06:00 +14°C° 0.1 mm 3 m/s 744 mmHg 79%
    07:00 +14°C° 0.1 mm 3 m/s 744 mmHg 78%
    08:00 +17°C° 0 mm 3 m/s 744 mmHg 72%
    09:00 +18°C° 0 mm 3 m/s 745 mmHg 66%
    10:00 +19°C° 0 mm 3 m/s 745 mmHg 59%
    11:00 +20°C° 0 mm 3 m/s 745 mmHg 56%
    12:00 +21°C° 0 mm 3 m/s 744 mmHg 53%
    13:00 +21°C° 0 mm 3 m/s 744 mmHg 50%
    14:00 +21°C° 0 mm 3 m/s 744 mmHg 52%
    15:00 +21°C° 0 mm 3 m/s 744 mmHg 53%
    16:00 +20°C° 0 mm 3 m/s 743 mmHg 55%
    17:00 +19°C° 0 mm 3 m/s 744 mmHg 59%
    18:00 +18°C° 0 mm 3 m/s 744 mmHg 63%
    19:00 +16°C° 0 mm 3 m/s 744 mmHg 67%
    20:00 +16°C° 0 mm 2 m/s 744 mmHg 68%
    21:00 +15°C° 0 mm 2 m/s 744 mmHg 70%
    22:00 +15°C° 0 mm 2 m/s 744 mmHg 72%
    23:00 +15°C° 0 mm 2 m/s 744 mmHg 73%

    Depois de amanhã, 24 Outubro, Quarta-feira

    Tempo Temperatura Precipitação Vento Pressão Humidade
    00:00 +14°C° 0 mm 2 m/s 744 mmHg 74%
    01:00 +14°C° 0 mm 2 m/s 743 mmHg 74%
    02:00 +14°C° 0 mm 2 m/s 743 mmHg 75%
    03:00 +14°C° 0 mm 2 m/s 743 mmHg 75%
    04:00 +13°C° 0 mm 2 m/s 743 mmHg 75%
    05:00 +14°C° 0 mm 2 m/s 743 mmHg 74%
    06:00 +14°C° 0 mm 2 m/s 742 mmHg 73%
    07:00 +14°C° 0 mm 1 m/s 742 mmHg 71%
    08:00 +16°C° 0 mm 2 m/s 742 mmHg 63%
    09:00 +18°C° 0 mm 2 m/s 742 mmHg 55%
    10:00 +20°C° 0 mm 3 m/s 742 mmHg 47%
    11:00 +21°C° 0 mm 3 m/s 741 mmHg 45%
    12:00 +21°C° 0 mm 4 m/s 741 mmHg 42%
    13:00 +22°C° 0 mm 4 m/s 740 mmHg 39%
    14:00 +21°C° 0 mm 4 m/s 740 mmHg 43%
    15:00 +20°C° 0 mm 4 m/s 740 mmHg 47%
    16:00 +20°C° 0 mm 4 m/s 740 mmHg 51%
    17:00 +18°C° 0 mm 3 m/s 740 mmHg 57%
    18:00 +17°C° 0 mm 3 m/s 740 mmHg 62%
    19:00 +15°C° 0 mm 2 m/s 740 mmHg 68%
    20:00 +15°C° 0 mm 2 m/s 741 mmHg 70%
    21:00 +15°C° 0 mm 2 m/s 741 mmHg 72%
    22:00 +14°C° 0 mm 2 m/s 742 mmHg 74%
    23:00 +13°C° 0 mm 3 m/s 742 mmHg 77%

    25 Outubro, Quinta-feira

    Tempo Temperatura Precipitação Vento Pressão Humidade
    00:00 +13°C° 0 mm 3 m/s 743 mmHg 80%
    01:00 +12°C° 0 mm 3 m/s 743 mmHg 83%
    02:00 +12°C° 0 mm 4 m/s 743 mmHg 82%
    03:00 +11°C° 0 mm 4 m/s 743 mmHg 81%
    04:00 +11°C° 0 mm 4 m/s 744 mmHg 80%
    05:00 +11°C° 0 mm 4 m/s 744 mmHg 78%
    06:00 +11°C° 0 mm 4 m/s 745 mmHg 76%
    07:00 +11°C° 0 mm 3 m/s 745 mmHg 74%
    08:00 +12°C° 0 mm 3 m/s 746 mmHg 62%
    09:00 +14°C° 0 mm 3 m/s 746 mmHg 51%
    10:00 +17°C° 0 mm 3 m/s 747 mmHg 39%
    11:00 +17°C° 0 mm 3 m/s 746 mmHg 35%
    12:00 +18°C° 0 mm 4 m/s 746 mmHg 31%
    13:00 +19°C° 0 mm 4 m/s 746 mmHg 27%
    14:00 +18°C° 0 mm 4 m/s 746 mmHg 29%
    15:00 +18°C° 0 mm 4 m/s 746 mmHg 31%
    16:00 +17°C° 0 mm 3 m/s 746 mmHg 33%
    17:00 +16°C° 0 mm 3 m/s 746 mmHg 35%
    18:00 +13°C° 0 mm 3 m/s 747 mmHg 37%
    19:00 +13°C° 0 mm 2 m/s 747 mmHg 38%
    20:00 +12°C° 0 mm 2 m/s 747 mmHg 39%
    21:00 +12°C° 0 mm 2 m/s 747 mmHg 39%
    22:00 +12°C° 0 mm 2 m/s 748 mmHg 39%
    23:00 +12°C° 0 mm 2 m/s 748 mmHg 39%

    26 Outubro, Sexta-feira

    Tempo Temperatura Precipitação Vento Pressão Humidade
    00:00 +12°C° 0 mm 2 m/s 748 mmHg 39%
    01:00 +12°C° 0 mm 2 m/s 748 mmHg 39%
    02:00 +10°C° 0 mm 2 m/s 747 mmHg 39%
    03:00 +10°C° 0 mm 2 m/s 747 mmHg 39%
    04:00 +11°C° 0 mm 1 m/s 747 mmHg 39%
    05:00 +12°C° 0 mm 2 m/s 747 mmHg 40%
    06:00 +12°C° 0 mm 2 m/s 747 mmHg 40%
    07:00 +13°C° 0 mm 2 m/s 748 mmHg 41%
    08:00 +15°C° 0 mm 2 m/s 748 mmHg 36%
    09:00 +18°C° 0 mm 2 m/s 748 mmHg 31%
    10:00 +20°C° 0 mm 2 m/s 748 mmHg 27%
    11:00 +21°C° 0 mm 3 m/s 748 mmHg 27%
    12:00 +21°C° 0 mm 3 m/s 747 mmHg 28%
    13:00 +22°C° 0 mm 3 m/s 747 mmHg 29%
    14:00 +21°C° 0 mm 3 m/s 747 mmHg 33%
    15:00 +20°C° 0 mm 3 m/s 747 mmHg 38%
    16:00 +20°C° 0 mm 2 m/s 747 mmHg 43%
    17:00 +18°C° 0 mm 3 m/s 747 mmHg 47%
    18:00 +17°C° 0 mm 3 m/s 747 mmHg 51%
    19:00 +14°C° 0 mm 3 m/s 747 mmHg 56%
    20:00 +14°C° 0 mm 3 m/s 748 mmHg 59%
    21:00 +13°C° 0 mm 3 m/s 748 mmHg 61%
    22:00 +13°C° 0 mm 3 m/s 748 mmHg 64%
    23:00 +13°C° 0 mm 3 m/s 748 mmHg 68%

    27 Outubro, Sábado

    Tempo Temperatura Precipitação Vento Pressão Humidade
    00:00 +13°C° 0 mm 3 m/s 748 mmHg 71%
    01:00 +12°C° 0 mm 4 m/s 748 mmHg 75%
    02:00 +12°C° 0 mm 4 m/s 747 mmHg 75%
    03:00 +12°C° 0 mm 4 m/s 747 mmHg 76%
    04:00 +12°C° 0 mm 4 m/s 747 mmHg 77%
    05:00 +13°C° 0 mm 4 m/s 747 mmHg 76%
    06:00 +13°C° 0 mm 4 m/s 747 mmHg 75%
    07:00 +14°C° 0 mm 4 m/s 747 mmHg 73%
    08:00 +17°C° 0 mm 4 m/s 747 mmHg 69%
    09:00 +19°C° 0 mm 5 m/s 747 mmHg 66%
    10:00 +21°C° 0 mm 5 m/s 747 mmHg 62%
    11:00 +22°C° 0 mm 5 m/s 746 mmHg 60%
    12:00 +22°C° 0 mm 6 m/s 746 mmHg 59%
    13:00 +23°C° 0 mm 6 m/s 745 mmHg 57%
    14:00 +22°C° 0 mm 6 m/s 745 mmHg 60%
    15:00 +21°C° 0 mm 6 m/s 745 mmHg 63%
    16:00 +21°C° 0 mm 5 m/s 745 mmHg 67%
    17:00 +19°C° 0 mm 5 m/s 745 mmHg 73%
    18:00 +17°C° 0 mm 5 m/s 745 mmHg 79%
    19:00 +16°C° 0 mm 5 m/s 745 mmHg 85%
    20:00 +15°C° 0 mm 5 m/s 745 mmHg 86%
    21:00 +15°C° 0 mm 5 m/s 745 mmHg 86%
    22:00 +15°C° 0 mm 5 m/s 745 mmHg 87%
    23:00 +15°C° 0 mm 5 m/s 745 mmHg 86%

    28 Outubro, Domingo

    Tempo Temperatura Precipitação Vento Pressão Humidade
    00:00 +15°C° 0 mm 5 m/s 745 mmHg 86%
    01:00 +14°C° 0 mm 5 m/s 745 mmHg 85%
    02:00 +14°C° 0 mm 5 m/s 745 mmHg 85%
    03:00 +14°C° 0 mm 5 m/s 745 mmHg 84%
    04:00 +14°C° 0 mm 5 m/s 744 mmHg 83%
    05:00 +14°C° 0 mm 5 m/s 745 mmHg 82%
    06:00 +14°C° 0 mm 5 m/s 745 mmHg 80%
    07:00 +15°C° 0 mm 5 m/s 745 mmHg 78%
    08:00 +16°C° 0 mm 6 m/s 745 mmHg 71%
    09:00 +19°C° 0 mm 6 m/s 745 mmHg 64%
    10:00 +21°C° 0 mm 6 m/s 745 mmHg 57%
    11:00 +21°C° 0 mm 6 m/s 745 mmHg 55%
    12:00 +22°C° 0 mm 6 m/s 745 mmHg 53%
    13:00 +22°C° 0 mm 6 m/s 745 mmHg 51%
    14:00 +22°C° 0 mm 6 m/s 745 mmHg 54%
    15:00 +21°C° 0 mm 6 m/s 744 mmHg 58%
    16:00 +20°C° 0 mm 6 m/s 744 mmHg 62%
    17:00 +19°C° 0 mm 6 m/s 744 mmHg 67%
    18:00 +17°C° 0 mm 5 m/s 745 mmHg 71%
    19:00 +16°C° 0 mm 5 m/s 745 mmHg 76%
    20:00 +16°C° 0 mm 5 m/s 745 mmHg 74%
    21:00 +16°C° 0 mm 5 m/s 745 mmHg 73%
    22:00 +16°C° 0 mm 5 m/s 745 mmHg 71%
    23:00 +16°C° 0.1 mm 5 m/s 745 mmHg 71%
    Mostrar mais